EHI
6 3 1 0 0 0 0 0 0 0 0 0 0 0 0 0 0 0 0 0 0 0 0 0 0 0 0 0 0 0 0 0 0 0 0 0 0 0 0 0 0 0 0
3 1 0 0 0 0 0 0 0 0 0 0 0 0 0 0 0 0 0 0 0 0 0 0 0 0 0 0 0 0 0 0 0 0 0 0 0 0 0 0 0 0 0
1 0 0 0 0 0 0 0 0 0 0 0 0 0 0 0 0 0 0 0 0 0 0 0 0 0 0 0 0 0 0 0 0 0 0 0 0 0 0 0 0 0 0
0 0 0 0 0 0 0 0 0 0 0 0 0 0 0 0 0 0 0 0 0 0 0 0 0 0 0 0 0 0 0 0 0 0 0 0 0 0 0 0 0 0 0
0 0 0 0 0 0 0 0 0 0 0 0 0 0 0 0 0 0 0 0 0 0 0 0 0 0 0 0 0 0 0 0 0 0 0 0 0 0 0 0 0 0 0
0 0 0 0 0 0 0 0 0 0 0 0 0 0 0 0 0 0 0 0 0 0 0 0 0 0 0 0 0 0 0 0 0 0 0 0 0 0 0 0 0 0 0
0 0 0 0 0 0 0 0 0 0 0 0 0 0 0 0 0 0 0 0 0 0 0 0 0 0 0 0 0 0 0 0 0 0 0 0 0 0 0 0 0 0 0
0 0 0 0 0 0 0 0 0 0 0 0 0 0 0 0 0 0 0 0 0 0 0 0 0 0 0 0 0 0 0 0 0 0 0 0 0 0 0 0 0 0 0
0 0 0 0 0 0 0 0 0 0 0 0 0 0 0 0 0 0 0 0 0 0 0 0 0 0 0 0 0 0 0 0 0 0 0 0 0 0 0 0 0 0 0
0 0 0 0 0 0 0 0 0 0 0 0 0 0 0 0 0 0 0 0 0 0 0 0 0 0 0 0 0 0 0 0 0 0 0 0 0 0 0 0 0 0 0
0 0 0 0 0 0 0 0 0 0 0 0 0 0 0 0 0 0 0 0 0 0 0 0 0 0 0 0 0 0 0 0 0 0 0 0 0 0 0 0 0 0 0
0 0 0 0 0 0 0 0 0 0 0 0 0 0 0 0 0 0 0 0 0 0 0 0 0 0 0 0 0 0 0 0 0 0 0 0 0 0 0 0 0 0 0
0 0 0 0 0 0 0 0 0 0 0 0 0 0 0 0 0 0 0 0 0 0 0 0 0 0 0 0 0 0 0 0 0 0 0 0 0 0 0 0 0 0 0
0 0 0 0 0 0 0 0 0 0 0 0 0 0 0 0 0 0 0 0 0 0 0 0 0 0 0 0 0 0 0 0 0 0 0 0 0 0 0 0 0 0 0
0 0 0 0 0 0 0 0 0 0 0 0 0 0 0 0 0 0 0 0 0 0 0 0 0 0 0 0 0 0 0 0 0 0 0 0 0 0 0 0 0 0 0
0 0 0 0 0 0 0 0 0 0 0 0 0 0 0 0 0 0 0 0 0 0 0 0 0 0 0 0 0 0 0 0 0 0 0 0 0 0 0 0 0 0 0
0 0 0 0 0 0 0 0 0 0 0 0 0 0 0 0 0 0 0 0 0 0 0 0 0 0 0 0 0 0 0 0 0 0 0 0 0 0 0 0 0 0 0
0 0 0 0 0 0 0 0 0 0 0 0 0 0 0 0 0 0 0 0 0 0 0 0 0 0 0 0 0 0 0 0 0 0 0 0 0 0 0 0 0 0 0
0 0 0 0 0 0 0 0 0 0 0 0 0 0 0 0 0 0 0 0 0 0 0 0 0 0 0 0 0 0 0 0 0 0 0 0 0 0 0 0 0 0 0
0 0 0 0 0 0 0 0 0 0 0 0 0 0 0 0 0 0 0 0 0 0 0 0 0 0 0 0 0 0 0 0 0 0 0 0 0 0 0 0 0 0 0
0 0 0 0 0 0 0 0 0 0 0 0 0 0 0 0 0 0 0 0 0 0 0 0 0 0 0 0 0 0 0 0 0 0 0 0 0 0 0 0 0 0 0
0 0 0 0 0 0 0 0 0 0 0 0 0 0 0 0 0 0 0 0 0 0 0 0 0 0 0 0 0 0 0 0 0 0 0 0 0 0 0 0 0 0 0
0 0 0 0 0 0 0 0 0 0 0 0 0 0 0 0 0 0 0 0 0 0 0 0 0 0 0 0 0 0 0 0 0 0 0 0 0 0 0 0 0 0 0
0 0 0 0 0 0 0 0 0 0 0 0 0 0 0 0 0 0 0 0 0 0 0 0 0 0 0 0 0 0 0 0 0 0 0 0 0 0 0 0 0 0 0
0 0 0 0 0 0 0 0 0 0 0 0 0 0 0 0 0 0 0 0 0 0 0 0 0 0 0 0 0 0 0 0 0 0 0 0 0 0 0 0 0 0 0
0 0 0 0 0 0 0 0 0 0 0 0 0 0 0 0 0 0 0 0 0 0 0 0 0 0 0 0 0 0 0 0 0 0 0 0 0 0 0 0 0 0 0
Wind_Speed
9 8 7 7 7 6 6 6 6 5 5 5 5 5 5 5 5 5 5 5 5 5 5 5 6 5 4 3 3 3 3 3 4 4 3 3 4 5 6 4 5 5 5
9 8 8 7 7 7 7 7 6 6 6 6 6 6 6 6 6 6 6 6 6 6 6 6 6 5 5 4 3 4 4 4 4 5 3 3 4 5 5 6 5 5 5
9 9 8 7 7 8 8 7 6 6 6 6 6 6 7 6 6 6 7 6 6 7 6 6 6 5 6 4 5 5 4 4 4 4 4 3 3 3 4 5 5 4 5
9 9 9 9 9 9 8 7 7 7 7 7 7 7 7 6 6 6 6 6 6 6 6 6 6 6 7 6 5 6 5 4 4 4 4 3 3 4 2 3 4 3 4
10 10 10 9 9 8 8 8 8 7 8 7 7 7 6 6 6 7 6 6 6 6 5 6 6 9 10 8 6 6 6 5 4 4 4 3 3 3 3 2 3 4 4
11 12 10 9 9 9 9 8 8 8 7 7 7 7 7 6 9 11 8 6 6 6 6 6 7 8 10 12 12 11 10 8 7 5 5 5 6 5 4 3 3 2 4
11 11 10 10 10 10 9 8 9 8 8 7 8 7 8 9 11 12 13 7 7 7 7 6 6 7 8 6 8 10 10 13 13 8 7 8 7 6 5 4 4 4 5
11 11 10 10 11 9 9 9 9 7 7 7 8 8 7 9 12 13 13 8 7 7 8 8 7 8 8 8 7 7 7 8 9 8 8 9 9 7 7 6 6 5 5
10 11 11 11 10 9 10 10 8 7 7 7 6 7 8 9 12 13 12 5 6 8 8 8 8 8 12 13 8 8 8 8 10 13 13 13 13 13 9 4 4 3 5
10 10 9 9 10 10 11 9 7 7 8 7 7 7 8 8 11 14 13 5 7 7 7 8 12 12 13 12 8 8 9 9 7 6 7 8 8 9 11 8 6 6 5
5 4 5 6 8 9 8 7 6 7 7 7 7 7 8 10 11 14 14 8 8 7 7 7 7 12 13 12 10 8 11 9 5 6 5 5 5 5 6 6 7 7 7
3 2 3 4 5 6 6 6 6 7 7 7 7 7 7 8 11 12 16 16 13 9 8 7 7 12 13 12 8 9 12 8 4 4 5 6 6 6 6 6 8 9 9
5 5 4 4 4 4 4 6 5 5 6 6 6 8 8 6 8 15 16 17 17 11 9 11 11 12 11 9 11 12 9 5 4 5 7 8 7 7 6 5 6 7 8
7 6 6 5 5 4 3 4 5 5 6 7 7 8 8 7 7 7 7 8 11 11 8 9 10 11 9 9 9 8 6 6 7 8 7 7 5 5 5 5 5 4 4
7 6 6 5 5 5 5 5 6 7 8 9 9 9 8 9 11 13 9 7 6 6 5 3 3 3 4 5 5 6 6 6 7 8 7 7 6 6 7 5 5 4 5
6 6 5 5 5 5 6 7 9 11 14 17 18 15 11 13 13 14 15 14 12 10 6 4 5 6 7 7 7 7 6 7 8 8 7 7 7 7 7 5 5 5 6
5 6 5 5 6 6 6 7 9 10 13 15 16 17 17 16 15 14 13 11 10 11 6 6 6 7 7 7 7 7 8 7 7 7 8 8 8 7 7 7 6 6 6
5 6 6 5 6 6 6 6 6 7 8 8 9 12 14 15 15 14 11 8 5 6 6 7 8 8 7 7 8 8 7 6 6 7 7 7 7 7 7 7 7 7 7
5 5 5 5 5 6 6 6 6 8 7 8 7 7 10 9 9 9 10 7 7 8 8 8 8 8 8 8 7 7 7 7 7 6 7 8 7 7 8 8 7 9 8
5 9 9 5 5 6 6 6 6 7 7 7 7 6 4 2 3 4 6 7 7 7 7 8 8 7 7 7 7 6 6 7 7 7 7 7 7 7 8 9 8 7 7
5 7 11 7 5 5 6 6 7 6 6 7 7 8 8 4 5 5 5 6 7 7 7 7 6 6 6 6 6 6 7 7 6 6 6 6 6 6 7 7 7 7 7
4 5 5 5 5 5 6 7 7 7 7 8 7 7 8 4 3 3 3 3 5 5 5 5 5 5 5 5 6 6 6 6 6 6 6 6 6 6 6 6 7 6 7
4 5 5 5 5 7 7 7 7 8 7 7 7 6 5 4 3 2 2 3 3 3 3 3 3 4 4 4 4 5 5 6 5 5 5 6 6 6 6 7 8 7 8
4 4 5 5 5 6 7 7 7 7 8 8 7 6 5 5 4 3 3 2 2 2 1 1 2 3 5 4 3 3 4 4 4 5 6 6 6 6 6 6 7 8 8
4 5 5 5 6 7 7 7 7 8 8 7 7 6 6 5 4 3 3 3 2 2 2 2 2 3 5 5 4 4 4 4 5 5 5 5 7 7 7 7 6 7 7
5 5 5 6 6 7 7 7 8 8 8 8 7 7 6 6 5 4 4 4 3 3 3 3 3 5 5 4 5 5 5 5 5 6 5 5 6 6 6 6 7 7 7
Wind_Direction
182 183 180 187 190 187 191 203 205 210 211 209 210 212 217 222 221 215 224 228 230 242 246 238 243 241 238 241 235 228 219 196 238 267 258 277 293 298 304 295 280 270 267
182 180 183 186 188 191 201 210 210 214 216 215 215 216 221 222 219 215 226 227 223 231 238 238 245 244 237 237 233 234 233 220 222 262 275 280 280 285 288 293 287 279 267
179 181 186 190 191 198 206 209 209 211 216 218 213 216 221 222 219 219 220 224 224 226 229 230 237 235 241 240 236 236 236 239 218 234 261 263 273 283 299 299 294 289 285
181 185 193 198 199 204 207 210 211 211 213 216 216 218 220 222 220 220 219 222 225 229 229 228 231 227 232 236 239 236 234 238 234 238 255 264 268 278 290 297 308 308 300
185 194 203 203 202 203 207 210 213 214 216 214 216 222 223 219 219 215 215 216 217 228 234 234 234 238 238 234 234 229 226 226 228 234 249 263 268 277 270 265 283 298 296
192 202 204 199 201 205 208 209 211 216 219 216 217 218 220 224 220 212 203 210 213 220 232 239 246 252 254 254 253 246 226 220 223 225 236 241 253 248 248 251 264 292 296
201 205 200 198 203 207 207 206 212 216 216 218 221 218 222 228 227 223 219 209 214 220 225 233 248 251 252 252 263 270 259 243 227 218 227 237 243 237 234 252 246 241 247
203 205 202 199 205 205 203 210 214 211 211 218 221 220 223 230 227 227 229 222 222 227 226 226 233 249 253 246 252 261 258 254 241 229 225 234 235 233 223 232 242 251 257
210 210 206 202 204 203 208 215 212 208 215 216 214 217 225 236 230 231 228 215 225 234 233 231 230 241 251 250 247 252 259 260 254 240 231 235 239 241 232 227 241 247 267
224 221 213 205 205 209 213 215 210 208 218 218 224 221 224 237 236 235 225 211 226 237 238 237 236 240 250 252 239 237 248 255 252 254 245 248 247 249 243 222 219 228 243
259 240 224 217 217 219 217 215 211 211 217 221 229 232 231 237 243 239 226 210 222 231 235 237 236 236 242 249 240 228 238 244 241 236 242 250 251 245 241 228 217 218 225
351 305 264 247 241 233 223 224 217 210 217 226 233 245 243 241 240 242 233 222 219 221 232 234 233 234 237 242 239 234 243 247 235 235 242 247 247 248 245 238 232 228 229
18 1 333 315 290 268 240 236 231 220 223 232 232 244 252 245 241 240 240 234 226 223 233 231 229 234 237 243 244 245 245 232 222 233 243 247 242 242 245 248 251 242 242
21 5 353 342 326 311 288 260 246 238 237 239 239 245 249 246 242 239 235 235 230 226 233 236 237 242 241 241 246 248 234 223 221 234 242 248 245 239 241 237 245 247 250
13 360 349 341 326 315 302 280 267 253 246 244 247 243 243 246 243 227 215 216 208 206 190 200 215 226 235 240 242 242 237 229 231 237 240 245 244 242 246 235 231 234 234
1 344 332 324 318 312 306 304 285 272 271 260 254 249 247 243 246 232 221 217 207 181 166 204 221 226 235 241 243 245 237 232 232 232 233 236 239 240 245 238 225 227 237
343 326 320 318 314 310 307 304 304 302 291 282 271 259 250 251 247 235 224 212 195 170 186 218 227 232 237 239 241 242 243 238 230 228 231 233 234 236 237 238 233 230 236
328 319 317 306 303 302 301 300 297 298 302 300 291 276 264 255 247 234 208 169 181 193 214 224 230 232 234 237 241 242 244 242 232 230 231 232 231 232 234 235 231 228 233
320 309 306 302 302 299 299 300 299 298 295 293 294 295 288 272 253 226 182 189 207 213 218 226 231 233 233 235 238 240 241 242 238 231 229 229 228 226 232 234 231 231 227
309 311 316 308 306 308 307 305 305 304 303 300 297 292 293 277 252 214 200 213 219 223 223 227 231 232 232 234 237 241 243 243 241 237 234 231 227 224 229 232 230 227 225
301 306 314 315 310 311 311 307 303 302 305 305 299 296 288 265 248 234 220 218 221 226 225 227 230 233 236 236 238 241 242 244 240 236 233 231 227 225 227 229 230 228 227
305 304 308 308 310 315 314 310 309 307 306 306 304 305 303 291 276 265 250 240 231 228 222 223 233 234 235 235 236 239 243 245 243 238 236 236 231 229 227 226 227 224 223
316 321 323 320 317 318 319 313 314 312 309 310 308 308 314 314 300 283 271 267 256 247 236 225 233 246 248 243 239 234 238 244 243 240 245 246 241 235 230 229 228 226 224
334 335 333 329 327 323 320 317 316 317 317 318 316 314 314 310 304 296 292 287 277 276 275 255 255 271 276 270 255 246 246 256 260 252 246 248 248 243 235 232 230 227 227
346 343 337 332 328 324 321 320 321 322 322 323 325 325 322 321 324 331 330 316 310 306 300 294 287 291 292 288 283 271 264 264 265 268 259 249 250 247 241 238 234 229 226
350 345 337 332 329 327 326 326 325 327 326 325 326 329 332 336 341 343 338 332 326 317 313 313 313 311 308 300 293 290 278 271 270 269 263 255 252 249 244 243 240 235 230